SL-8 R/B, 3230

Orbit data source: Space-Track

SL-8 R/B, 3230 is space debris in LEO originally from a launch on Tue, 07 May 1968 UTC launched from the Plesetsk Missile And Space Complex (PKMTR). Debris objects in space refer to the collection of defunct objects orbiting the Earth. Examples of debris include non-operational satellites, rocket bodies, and fragments generated from explosions, collisions, or faulty payload assembly.

Loading next visibility...
SL-8 R/B details
Identifier
3230, 1968-040B
Orbit
LEO
Last TLE update9 hours ago
Origin
Flag of CISRVSN (CIS)
ManufacturerYuzhnoe
MissionSpacecraft
Bus & MotorS3, Unknown motor
Mass1,434 kg wet, 1,434 kg dry
Launch date (UTC)
1968-05-07 (57 years ago)
Launch vehicleUnknown
Launch site
Plesetsk Missile And Space Complex (PKMTR)
Object type
Payload
Rocket body
Debris
Shape & HBRCyl, 4.2 m
Radar Cross Section10.179 m², Large (>1 m²)

Expand to show TLE details & history

TLE from 9 hours ago
0 SL-8 R/B
1 03230U 68040B   24356.84389848  .00005463  00000-0  45101-3 0  9990
2 03230  74.0322 135.8068 0025574  74.2720 286.1284 14.98975772 23559
Epoch: 2024-12-21T20:15Z
Definitive object data (Epoch: 2024-12-21T20:15:12.828Z)
Latitude-0.00007°
Longitude101.1141°
Altitude567.851 km
Speed7.58 km/s
True Right ascension09h 03m 13s
True Declination0° 00' 00"
Sunlit
Object was in full shadow at TLE epoch
Visualization TLE readout
Latitude-73.44271°
Longitude-6.48136°
Altitude614.026 km
Speed7.542 km/s
Apparent Right ascension17h 54m 04s
Apparent Declination-71° 31' 47"
Sunlit
Object is in daylight
Visualization observer readout
Local Sidereal Time04:31:03
Azimuth191.799° SSW
Elevation-56.703°
Doppler factor1
Orbital elements
Apogee altitude585.378 km
Perigee altitude549.852 km
Semi-major axis6,945.752 km
Eccentricity0.0025574
Inclination74.0322°
RAAN135.8068°
Arg. of periapsis74.272°
True anomaly285.84663°
Mean anomaly286.1284°
Eccentric anomaly285.98754°
Mean motion3.74942 °/min
BSTAR0.00045101
Orbital period96.01 mins
Loading maneuver chart data...
Loading historical data...
Loading historical data...
Loading historical data...
Loading historical data...
Loading historical data...
Loading historical data...
Loading historical data...
Other satellites on launch #40 in the year 1968 (1968-05-07 UTC)

SL-8 R/B Visibility forecast

Observer location: undefined°, undefined

Span
Click to sort rows by Start time (UTC) header in descending order
Start Az.
Max El. time (UTC)
Max El. Az.
Max El.
End time (UTC)
End Az.
7 mins2024-12-22 10:47:27.718Z200.455° SSW2024-12-22 10:51:27.718Z328.346° NNW44.615°2024-12-22 10:54:27.718Z16.443° NNE
7 mins2024-12-22 20:50:27.718Z340.514° N2024-12-22 20:53:27.718Z302.329° NW44.945°2024-12-22 20:57:27.718Z163.251° S
|